When you browse on this site, cookies collect data to enhance your experience and personalize the content and advertising you see.
Visit our Privacy Policy to learn more. By continuing to use the site, you agree to this use of cookies and data.
  • In Lithuania
  • List of Countries
  • For 7 days
  • Water Temperature
  • Satellite Maps
  • Weather Map
  • Weather Widgets
  • user-avatar
    Login

    Hourly Weather Salta

    Today, 23 February, Saturday

    Time Temperature Precipitation Wind Pressure Humidity
    00:00 +23°C° 0 mm 1 mps 651 mmHg 57%
    01:00 +23°C° 0 mm 1 mps 651 mmHg 57%
    02:00 +22°C° 0 mm 1 mps 650 mmHg 59%
    03:00 +22°C° 0 mm 1 mps 649 mmHg 59%
    04:00 +22°C° 0 mm 1 mps 649 mmHg 59%
    05:00 +21°C° 0 mm 1 mps 649 mmHg 59%
    06:00 +23°C° 0 mm 1 mps 649 mmHg 55%
    07:00 +25°C° 0 mm 1 mps 650 mmHg 50%
    08:00 +27°C° 0 mm 1 mps 651 mmHg 46%
    09:00 +29°C° 0 mm 2 mps 651 mmHg 42%
    10:00 +31°C° 0 mm 2 mps 651 mmHg 38%
    11:00 +34°C° 0 mm 3 mps 651 mmHg 34%
    12:00 +35°C° 0 mm 4 mps 651 mmHg 32%
    13:00 +35°C° 0 mm 4 mps 650 mmHg 30%
    14:00 +36°C° 0 mm 4 mps 650 mmHg 29%
    15:00 +36°C° 0 mm 4 mps 649 mmHg 30%
    16:00 +35°C° 0 mm 4 mps 648 mmHg 31%
    17:00 +34°C° 0 mm 4 mps 647 mmHg 32%
    18:00 +31°C° 0.1 mm 3 mps 647 mmHg 38%
    19:00 +28°C° 0.1 mm 2 mps 646 mmHg 44%
    20:00 +26°C° 0.1 mm 1 mps 646 mmHg 50%
    21:00 +25°C° 0 mm 1 mps 646 mmHg 53%
    22:00 +25°C° 0 mm 1 mps 647 mmHg 55%
    23:00 +25°C° 0 mm 1 mps 647 mmHg 57%

    Tomorrow, 24 February, Sunday

    Time Temperature Precipitation Wind Pressure Humidity
    00:00 +24°C° 0 mm 1 mps 647 mmHg 58%
    01:00 +23°C° 0 mm 1 mps 646 mmHg 60%
    02:00 +23°C° 0 mm 1 mps 645 mmHg 61%
    03:00 +22°C° 0 mm 1 mps 645 mmHg 62%
    04:00 +22°C° 0 mm 1 mps 645 mmHg 63%
    05:00 +22°C° 0 mm 1 mps 645 mmHg 63%
    06:00 +24°C° 0 mm 1 mps 646 mmHg 59%
    07:00 +25°C° 0 mm 1 mps 647 mmHg 54%
    08:00 +27°C° 0 mm 1 mps 648 mmHg 50%
    09:00 +29°C° 0 mm 2 mps 649 mmHg 45%
    10:00 +31°C° 0 mm 2 mps 650 mmHg 40%
    11:00 +34°C° 0 mm 3 mps 650 mmHg 35%
    12:00 +35°C° 0 mm 3 mps 650 mmHg 34%
    13:00 +36°C° 0 mm 3 mps 650 mmHg 34%
    14:00 +36°C° 0 mm 3 mps 649 mmHg 33%
    15:00 +35°C° 0.2 mm 3 mps 648 mmHg 36%
    16:00 +34°C° 0.2 mm 3 mps 648 mmHg 39%
    17:00 +33°C° 0.2 mm 3 mps 647 mmHg 43%
    18:00 +30°C° 1.3 mm 2 mps 647 mmHg 55%
    19:00 +27°C° 1.3 mm 2 mps 647 mmHg 67%
    20:00 +25°C° 1.3 mm 1 mps 647 mmHg 79%
    21:00 +24°C° 2.6 mm 1 mps 647 mmHg 81%
    22:00 +24°C° 2.6 mm 1 mps 648 mmHg 84%
    23:00 +23°C° 2.6 mm 1 mps 648 mmHg 87%

    Day after tomorrow, 25 February, Monday

    Time Temperature Precipitation Wind Pressure Humidity
    00:00 +23°C° 2.9 mm 1 mps 648 mmHg 88%
    01:00 +22°C° 2.9 mm 1 mps 648 mmHg 89%
    02:00 +21°C° 2.9 mm 1 mps 647 mmHg 90%
    03:00 +21°C° 0.2 mm 1 mps 647 mmHg 89%
    04:00 +21°C° 0.2 mm 1 mps 647 mmHg 88%
    05:00 +21°C° 0.2 mm 1 mps 647 mmHg 88%
    06:00 +21°C° 0.1 mm 1 mps 648 mmHg 87%
    07:00 +21°C° 0.1 mm 2 mps 649 mmHg 86%
    08:00 +23°C° 0.1 mm 2 mps 650 mmHg 85%
    09:00 +23°C° 0.2 mm 2 mps 650 mmHg 84%
    10:00 +24°C° 0.2 mm 2 mps 650 mmHg 83%
    11:00 +24°C° 0.2 mm 3 mps 651 mmHg 82%
    12:00 +25°C° 0.7 mm 3 mps 650 mmHg 79%
    13:00 +25°C° 0.7 mm 3 mps 650 mmHg 77%
    14:00 +26°C° 0.7 mm 3 mps 650 mmHg 74%
    15:00 +25°C° 1.1 mm 3 mps 649 mmHg 80%
    16:00 +23°C° 1.1 mm 2 mps 649 mmHg 85%
    17:00 +21°C° 1.1 mm 2 mps 648 mmHg 91%
    18:00 +20°C° 0.9 mm 2 mps 649 mmHg 92%
    19:00 +20°C° 0.9 mm 2 mps 649 mmHg 93%
    20:00 +20°C° 0.9 mm 1 mps 650 mmHg 95%
    21:00 +20°C° 0.2 mm 1 mps 651 mmHg 95%
    22:00 +19°C° 0.2 mm 1 mps 651 mmHg 95%
    23:00 +19°C° 0.2 mm 1 mps 652 mmHg 96%

    26 February, Tuesday

    Time Temperature Precipitation Wind Pressure Humidity
    00:00 +19°C° 0.1 mm 1 mps 652 mmHg 95%
    01:00 +18°C° 0.1 mm 1 mps 651 mmHg 93%
    02:00 +18°C° 0.1 mm 1 mps 651 mmHg 92%
    03:00 +16°C° 0.1 mm 1 mps 651 mmHg 92%
    04:00 +16°C° 0.1 mm 1 mps 652 mmHg 91%
    05:00 +16°C° 0.1 mm 1 mps 652 mmHg 90%
    06:00 +16°C° 0.1 mm 1 mps 652 mmHg 90%
    07:00 +16°C° 0.1 mm 1 mps 653 mmHg 89%
    08:00 +18°C° 0.1 mm 1 mps 653 mmHg 88%
    09:00 +18°C° 0.1 mm 1 mps 654 mmHg 85%
    10:00 +19°C° 0.1 mm 1 mps 654 mmHg 82%
    11:00 +19°C° 0.1 mm 2 mps 654 mmHg 78%
    12:00 +20°C° 0.4 mm 2 mps 654 mmHg 77%
    13:00 +20°C° 0.4 mm 2 mps 653 mmHg 75%
    14:00 +21°C° 0.4 mm 2 mps 653 mmHg 73%
    15:00 +20°C° 0.6 mm 2 mps 652 mmHg 77%
    16:00 +20°C° 0.6 mm 2 mps 651 mmHg 81%
    17:00 +20°C° 0.6 mm 1 mps 651 mmHg 85%
    18:00 +19°C° 0.4 mm 1 mps 651 mmHg 87%
    19:00 +19°C° 0.4 mm 1 mps 651 mmHg 90%
    20:00 +16°C° 0.4 mm 0 mps 652 mmHg 92%
    21:00 +16°C° 0.1 mm 0 mps 652 mmHg 93%
    22:00 +15°C° 0.1 mm 0 mps 652 mmHg 94%
    23:00 +15°C° 0.1 mm 0 mps 652 mmHg 95%

    27 February, Wednesday

    Time Temperature Precipitation Wind Pressure Humidity
    00:00 +15°C° 0 mm 0 mps 651 mmHg 95%
    01:00 +14°C° 0 mm 0 mps 651 mmHg 95%
    02:00 +14°C° 0 mm 0 mps 650 mmHg 96%
    03:00 +14°C° 0 mm 0 mps 650 mmHg 96%
    04:00 +14°C° 0 mm 0 mps 650 mmHg 96%
    05:00 +14°C° 0 mm 0 mps 650 mmHg 96%
    06:00 +15°C° 0 mm 1 mps 651 mmHg 93%
    07:00 +16°C° 0 mm 1 mps 651 mmHg 91%
    08:00 +18°C° 0 mm 1 mps 652 mmHg 88%
    09:00 +19°C° 0.1 mm 1 mps 652 mmHg 85%
    10:00 +19°C° 0.1 mm 2 mps 652 mmHg 82%
    11:00 +19°C° 0.1 mm 2 mps 652 mmHg 79%
    12:00 +20°C° 0.1 mm 2 mps 652 mmHg 76%
    13:00 +21°C° 0.1 mm 2 mps 652 mmHg 73%
    14:00 +21°C° 0.1 mm 2 mps 651 mmHg 71%
    15:00 +23°C° 0 mm 2 mps 651 mmHg 69%
    16:00 +23°C° 0 mm 2 mps 651 mmHg 68%
    17:00 +23°C° 0 mm 2 mps 651 mmHg 67%
    18:00 +21°C° 0 mm 1 mps 651 mmHg 74%
    19:00 +19°C° 0 mm 1 mps 651 mmHg 82%
    20:00 +16°C° 0 mm 0 mps 651 mmHg 90%
    21:00 +18°C° 0 mm 1 mps 652 mmHg 90%
    22:00 +16°C° 0 mm 1 mps 652 mmHg 90%
    23:00 +16°C° 0 mm 1 mps 652 mmHg 91%

    28 February, Thursday

    Time Temperature Precipitation Wind Pressure Humidity
    00:00 +15°C° 0 mm 0 mps 652 mmHg 90%
    01:00 +14°C° 0 mm 0 mps 652 mmHg 90%
    02:00 +14°C° 0 mm 0 mps 652 mmHg 89%
    03:00 +14°C° 0 mm 0 mps 652 mmHg 90%
    04:00 +14°C° 0 mm 0 mps 652 mmHg 90%
    05:00 +13°C° 0 mm 0 mps 652 mmHg 90%
    06:00 +15°C° 0 mm 0 mps 653 mmHg 83%
    07:00 +17°C° 0 mm 0 mps 654 mmHg 76%
    08:00 +19°C° 0 mm 0 mps 654 mmHg 69%
    09:00 +23°C° 0 mm 1 mps 655 mmHg 62%
    10:00 +24°C° 0 mm 2 mps 655 mmHg 55%
    11:00 +26°C° 0 mm 2 mps 655 mmHg 48%
    12:00 +27°C° 0 mm 3 mps 654 mmHg 45%
    13:00 +28°C° 0 mm 3 mps 654 mmHg 42%
    14:00 +29°C° 0 mm 3 mps 653 mmHg 40%
    15:00 +29°C° 0 mm 3 mps 653 mmHg 41%
    16:00 +28°C° 0 mm 3 mps 652 mmHg 42%
    17:00 +28°C° 0 mm 3 mps 651 mmHg 44%
    18:00 +25°C° 0 mm 2 mps 651 mmHg 53%
    19:00 +23°C° 0 mm 2 mps 651 mmHg 61%
    20:00 +20°C° 0 mm 1 mps 651 mmHg 70%
    21:00 +20°C° 0 mm 1 mps 651 mmHg 73%
    22:00 +19°C° 0 mm 1 mps 651 mmHg 76%
    23:00 +17°C° 0 mm 0 mps 652 mmHg 78%
    Show more